Weather History for KVGT - November, 2012

Change the Weather History Date:

Thursday, November 1, 2012

  Actual Average Record
Temperature  
Mean Temperature 66 °F -  
Max Temperature 78 °F 74 °F 84 °F (1960)
Min Temperature 54 °F 48 °F 31 °F (1960)
Cooling Degree Days 1    
Growing Degree Days 16 (Base 50)    
Moisture  
Dew Point 29 °F    
Average Humidity 28    
Maximum Humidity 45    
Minimum Humidity 13    
Precipitation  
Precipitation 0.00 in - - ()
Sea Level Pressure  
Sea Level Pressure 29.94 in    
Wind  
Wind Speed 4 mph (ENE)    
Max Wind Speed 14 mph    
Max Gust Speed -    
Visibility 10 miles    
Events      
Averages and records for this station are not official NWS values.
T = Trace of Precipitation, MM = Missing Value Source: NWS Daily Summary

Daily Weather History Graph

Daily Weather History Graph

Search for Another Location

Airport or City:

Trip Planner

Search our weather history database for the weather conditions in past years. The results will help you decide how hot, cold, wet, or windy it might be!

Date:

Astronomy

Nov. 01, 2012 Rise Set
Actual Time 7:04 AM PDT 5:43 PM PDT
Civil Twilight 6:37 AM PDT 6:10 PM PDT
Nautical Twilight 6:07 AM PDT 6:40 PM PDT
Astronomical Twilight 5:37 AM PDT 7:10 PM PDT
Moon 7:48 PM PDT (11/1) 9:36 AM PDT (11/1)
Length of Visible Light 11h 33m
Length of Day
10h 39m
Waning Gibbous, 92% of the Moon is Illuminated
Nov 1
Waning Gibbous
Nov 6
Last Quarter
Nov 13
New
Nov 20
First Quarter
Nov 28
Full

Hourly Weather History & Observations

Time (PDT) Temp. Dew Point Humidity Pressure Visibility Wind Dir Wind Speed Gust Speed Precip Events Conditions
12:53 AM 59.0 °F 33.8 °F 39% 29.95 in 10.0 mi NW 5.8 mph - N/A   Clear
1:53 AM 57.0 °F 33.1 °F 40% 29.96 in 10.0 mi NW 4.6 mph - N/A   Clear
2:53 AM 57.2 °F 32.0 °F 38% 29.95 in 10.0 mi Calm Calm - N/A   Clear
3:53 AM 55.9 °F 33.1 °F 42% 29.94 in 10.0 mi Calm Calm - N/A   Clear
4:53 AM 54.0 °F 33.1 °F 45% 29.95 in 10.0 mi North 3.5 mph - N/A   Clear
5:53 AM 55.0 °F 34.0 °F 45% 29.96 in 10.0 mi WNW 4.6 mph - N/A   Clear
6:53 AM 55.9 °F 33.1 °F 42% 29.97 in 10.0 mi Calm Calm - N/A   Clear
7:53 AM 57.0 °F 34.0 °F 42% 29.99 in 10.0 mi NW 3.5 mph - N/A   Clear
8:53 AM 61.0 °F 32.0 °F 34% 30.00 in 10.0 mi Calm Calm - N/A   Clear
9:53 AM 63.0 °F 28.0 °F 27% 30.00 in 10.0 mi Calm Calm - N/A   Clear
10:53 AM 66.9 °F 28.9 °F 24% 30.00 in 10.0 mi ESE 3.5 mph - N/A   Clear
11:53 AM 70.0 °F 26.1 °F 19% 29.98 in 10.0 mi ESE 4.6 mph - N/A   Clear
12:53 PM 73.0 °F 25.0 °F 17% 29.94 in 10.0 mi SE 5.8 mph - N/A   Clear
1:53 PM 77.0 °F 25.0 °F 15% 29.91 in 10.0 mi SSE 13.8 mph - N/A   Clear
2:53 PM 77.0 °F 23.0 °F 13% 29.88 in 10.0 mi SE 10.4 mph - N/A   Clear
3:53 PM 78.8 °F 23.0 °F 13% 29.87 in 10.0 mi ESE 10.4 mph - N/A   Clear
4:53 PM 77.0 °F 23.0 °F 13% 29.88 in 10.0 mi ESE 10.4 mph - N/A   Clear
5:53 PM 73.9 °F 23.0 °F 15% 29.88 in 10.0 mi ESE 8.1 mph - N/A   Clear
6:53 PM 72.0 °F 25.0 °F 17% 29.90 in 10.0 mi ENE 5.8 mph - N/A   Clear
7:53 PM 68.0 °F 26.1 °F 21% 29.91 in 10.0 mi Calm Calm - N/A   Clear
8:53 PM 66.0 °F 27.0 °F 23% 29.91 in 10.0 mi Calm Calm - N/A   Clear
9:53 PM 64.9 °F 26.1 °F 23% 29.93 in 10.0 mi Calm Calm - N/A   Clear
10:53 PM 61.0 °F 28.0 °F 29% 29.93 in 10.0 mi WNW 5.8 mph - N/A   Clear
11:53 PM 60.1 °F 28.9 °F 31% 29.94 in 10.0 mi NNW 3.5 mph - N/A   Clear